Location: Chanteloup
(48.8560°N, 2.7390°E)
Time: 23:20:49
(UTC+00:00)

Cosmos 2322 Rocket - Pass Details

Date: 05 June 2022
Orbit: 833 x 851 km, 71.0° (Epoch: 06 July)

Event Time Altitude Azimuth Distance (km) Brightness Sun altitude
Rises 23:14:58 0° 284° (WNW) 3,382 5.6 -18.1°
Reaches altitude 10° 23:19:45 10° 320° (NW) 2,453 5.5 -18.2°
Maximum altitude 23:21:08 11° 335° (NNW) 2,394 5.6 -18.3°
Drops below altitude 10° 23:22:32 10° 350° (N) 2,456 5.9 -18.3°
Sets 23:27:21 0° 26° (NNE) 3,398 6.4 -18.4°
